Hourly Weather Matlock

Today, 4 July, Saturday

Time Temperature Precipitation Wind Pressure Humidity
00:00 +15°C° 0.3 mm 7 mps 739 mmHg 93%
01:00 +15°C° 0.2 mm 6 mps 739 mmHg 94%
02:00 +15°C° 0.2 mm 6 mps 738 mmHg 94%
03:00 +15°C° 0.2 mm 6 mps 738 mmHg 94%
04:00 +15°C° 0.1 mm 6 mps 738 mmHg 94%
05:00 +15°C° 0.1 mm 6 mps 738 mmHg 94%
06:00 +15°C° 0.1 mm 6 mps 738 mmHg 93%
07:00 +16°C° 0 mm 6 mps 738 mmHg 91%
08:00 +16°C° 0 mm 6 mps 738 mmHg 90%
09:00 +17°C° 0 mm 6 mps 739 mmHg 88%
10:00 +19°C° 0.1 mm 6 mps 739 mmHg 85%
11:00 +18°C° 0.1 mm 7 mps 739 mmHg 82%
12:00 +20°C° 0.1 mm 7 mps 739 mmHg 79%
13:00 +20°C° 0 mm 7 mps 739 mmHg 79%
14:00 +20°C° 0 mm 7 mps 739 mmHg 80%
15:00 +20°C° 0 mm 6 mps 739 mmHg 80%
16:00 +19°C° 0 mm 6 mps 739 mmHg 82%
17:00 +17°C° 0 mm 5 mps 739 mmHg 84%
18:00 +17°C° 0 mm 5 mps 739 mmHg 86%
19:00 +17°C° 0 mm 5 mps 739 mmHg 87%
20:00 +17°C° 0 mm 6 mps 739 mmHg 87%
21:00 +17°C° 0 mm 6 mps 738 mmHg 87%
22:00 +16°C° 0 mm 7 mps 738 mmHg 85%
23:00 +16°C° 0 mm 8 mps 738 mmHg 83%

Tomorrow, 5 July, Sunday

Time Temperature Precipitation Wind Pressure Humidity
00:00 +16°C° 0 mm 8 mps 737 mmHg 82%
01:00 +16°C° 0.3 mm 9 mps 737 mmHg 85%
02:00 +16°C° 0.3 mm 9 mps 736 mmHg 88%
03:00 +16°C° 0.3 mm 10 mps 736 mmHg 91%
04:00 +16°C° 0.2 mm 10 mps 736 mmHg 89%
05:00 +16°C° 0.2 mm 9 mps 736 mmHg 88%
06:00 +15°C° 0.2 mm 9 mps 736 mmHg 87%
07:00 +15°C° 0.1 mm 9 mps 736 mmHg 82%
08:00 +15°C° 0.1 mm 9 mps 737 mmHg 77%
09:00 +15°C° 0.1 mm 9 mps 737 mmHg 71%
10:00 +15°C° 0.1 mm 9 mps 738 mmHg 69%
11:00 +15°C° 0.1 mm 9 mps 738 mmHg 66%
12:00 +15°C° 0.1 mm 9 mps 738 mmHg 64%
13:00 +15°C° 0 mm 9 mps 738 mmHg 64%
14:00 +15°C° 0 mm 9 mps 738 mmHg 63%
15:00 +15°C° 0 mm 9 mps 739 mmHg 63%
16:00 +13°C° 0.2 mm 9 mps 739 mmHg 66%
17:00 +13°C° 0.2 mm 8 mps 739 mmHg 69%
18:00 +12°C° 0.2 mm 8 mps 739 mmHg 72%
19:00 +11°C° 0.1 mm 8 mps 739 mmHg 73%
20:00 +11°C° 0.1 mm 7 mps 739 mmHg 75%
21:00 +10°C° 0.1 mm 7 mps 739 mmHg 76%
22:00 +10°C° 0 mm 7 mps 739 mmHg 77%
23:00 +9°C° 0 mm 7 mps 739 mmHg 78%

Day after tomorrow, 6 July, Monday

Time Temperature Precipitation Wind Pressure Humidity
00:00 +9°C° 0 mm 7 mps 739 mmHg 79%
01:00 +9°C° 0 mm 7 mps 740 mmHg 80%
02:00 +9°C° 0 mm 7 mps 740 mmHg 81%
03:00 +9°C° 0 mm 7 mps 741 mmHg 82%
04:00 +9°C° 0 mm 7 mps 741 mmHg 81%
05:00 +9°C° 0 mm 7 mps 742 mmHg 80%
06:00 +10°C° 0 mm 7 mps 742 mmHg 80%
07:00 +10°C° 0 mm 7 mps 743 mmHg 79%
08:00 +11°C° 0 mm 7 mps 743 mmHg 79%
09:00 +11°C° 0 mm 7 mps 744 mmHg 79%
10:00 +13°C° 0.1 mm 8 mps 744 mmHg 73%
11:00 +15°C° 0.1 mm 8 mps 745 mmHg 67%
12:00 +17°C° 0.1 mm 8 mps 746 mmHg 62%
13:00 +16°C° 0.1 mm 8 mps 746 mmHg 62%
14:00 +16°C° 0.1 mm 7 mps 747 mmHg 62%
15:00 +16°C° 0.1 mm 7 mps 747 mmHg 62%
16:00 +16°C° 0 mm 7 mps 748 mmHg 64%
17:00 +15°C° 0 mm 6 mps 748 mmHg 66%
18:00 +15°C° 0 mm 6 mps 748 mmHg 67%
19:00 +13°C° 0 mm 5 mps 749 mmHg 70%
20:00 +12°C° 0 mm 5 mps 749 mmHg 72%
21:00 +10°C° 0 mm 4 mps 749 mmHg 74%
22:00 +10°C° 0 mm 4 mps 750 mmHg 78%
23:00 +8°C° 0 mm 4 mps 750 mmHg 81%

7 July, Tuesday

Time Temperature Precipitation Wind Pressure Humidity
00:00 +8°C° 0 mm 3 mps 750 mmHg 84%
01:00 +8°C° 0 mm 3 mps 750 mmHg 86%
02:00 +7°C° 0 mm 3 mps 750 mmHg 87%
03:00 +7°C° 0 mm 3 mps 750 mmHg 89%
04:00 +7°C° 0 mm 4 mps 750 mmHg 87%
05:00 +8°C° 0 mm 4 mps 750 mmHg 85%
06:00 +10°C° 0 mm 4 mps 750 mmHg 82%
07:00 +11°C° 0 mm 4 mps 750 mmHg 78%
08:00 +12°C° 0 mm 4 mps 750 mmHg 73%
09:00 +14°C° 0 mm 4 mps 750 mmHg 69%
10:00 +14°C° 0 mm 5 mps 750 mmHg 67%
11:00 +15°C° 0 mm 5 mps 750 mmHg 65%
12:00 +15°C° 0 mm 5 mps 750 mmHg 64%
13:00 +15°C° 0 mm 5 mps 750 mmHg 63%
14:00 +16°C° 0 mm 5 mps 750 mmHg 62%
15:00 +16°C° 0 mm 5 mps 750 mmHg 61%
16:00 +15°C° 0 mm 4 mps 750 mmHg 64%
17:00 +15°C° 0 mm 4 mps 749 mmHg 66%
18:00 +16°C° 0 mm 3 mps 749 mmHg 68%
19:00 +14°C° 0 mm 3 mps 749 mmHg 69%
20:00 +13°C° 0 mm 3 mps 749 mmHg 70%
21:00 +13°C° 0 mm 2 mps 749 mmHg 72%
22:00 +11°C° 0 mm 3 mps 749 mmHg 72%
23:00 +11°C° 0 mm 3 mps 749 mmHg 73%

8 July, Wednesday

Time Temperature Precipitation Wind Pressure Humidity
00:00 +11°C° 0 mm 4 mps 748 mmHg 74%
01:00 +10°C° 0 mm 5 mps 748 mmHg 75%
02:00 +12°C° 0 mm 5 mps 747 mmHg 76%
03:00 +11°C° 0 mm 6 mps 747 mmHg 78%
04:00 +11°C° 0 mm 6 mps 746 mmHg 81%
05:00 +13°C° 0 mm 6 mps 746 mmHg 84%
06:00 +12°C° 0 mm 7 mps 745 mmHg 86%
07:00 +14°C° 0.1 mm 7 mps 745 mmHg 87%
08:00 +14°C° 0.1 mm 7 mps 745 mmHg 87%
09:00 +15°C° 0.1 mm 7 mps 744 mmHg 88%
10:00 +15°C° 0 mm 8 mps 744 mmHg 86%
11:00 +16°C° 0 mm 8 mps 744 mmHg 85%
12:00 +16°C° 0 mm 8 mps 744 mmHg 84%
13:00 +16°C° 0 mm 8 mps 744 mmHg 84%
14:00 +16°C° 0 mm 8 mps 744 mmHg 84%
15:00 +16°C° 0 mm 8 mps 744 mmHg 85%
16:00 +15°C° 0 mm 7 mps 744 mmHg 83%
17:00 +15°C° 0 mm 7 mps 744 mmHg 81%
18:00 +14°C° 0 mm 7 mps 744 mmHg 80%
19:00 +13°C° 0 mm 6 mps 744 mmHg 78%
20:00 +11°C° 0 mm 6 mps 745 mmHg 77%
21:00 +10°C° 0 mm 5 mps 745 mmHg 75%
22:00 +10°C° 0 mm 5 mps 746 mmHg 77%
23:00 +10°C° 0 mm 5 mps 746 mmHg 79%

9 July, Thursday

Time Temperature Precipitation Wind Pressure Humidity
00:00 +9°C° 0 mm 5 mps 746 mmHg 81%
01:00 +10°C° 0 mm 4 mps 746 mmHg 83%
02:00 +8°C° 0 mm 4 mps 747 mmHg 86%
03:00 +8°C° 0 mm 4 mps 747 mmHg 89%
04:00 +8°C° 0 mm 4 mps 747 mmHg 87%
05:00 +10°C° 0 mm 4 mps 748 mmHg 84%
06:00 +10°C° 0 mm 4 mps 748 mmHg 82%
07:00 +11°C° 0 mm 4 mps 748 mmHg 77%
08:00 +13°C° 0 mm 4 mps 748 mmHg 72%
09:00 +14°C° 0 mm 4 mps 749 mmHg 67%
10:00 +15°C° 0 mm 4 mps 749 mmHg 63%
11:00 +17°C° 0 mm 3 mps 749 mmHg 59%
12:00 +18°C° 0 mm 3 mps 749 mmHg 56%
13:00 +17°C° 0 mm 3 mps 749 mmHg 57%
14:00 +17°C° 0 mm 3 mps 749 mmHg 58%
15:00 +17°C° 0 mm 3 mps 749 mmHg 59%
16:00 +16°C° 0 mm 3 mps 748 mmHg 61%
17:00 +16°C° 0 mm 2 mps 748 mmHg 63%
18:00 +16°C° 0 mm 2 mps 748 mmHg 65%
19:00 +15°C° 0 mm 2 mps 748 mmHg 67%
20:00 +14°C° 0 mm 1 mps 748 mmHg 69%
21:00 +12°C° 0 mm 1 mps 748 mmHg 72%
22:00 +12°C° 0 mm 1 mps 748 mmHg 74%
23:00 +12°C° 0 mm 1 mps 747 mmHg 75%
Show more